sat.trackr.live / text

‹ back to catalog

STARLINK-6305

NORAD 56394 · 2023-061W

PAYLOAD ACTIVE UNKNOWN

§ Identity

Operator
Country
US
Launch date
2023-05-04
Launch site
AFETR
Launch vehicle
Mass (kg)
RCS (m²)

Purposes: comms

External: N2YO · Heavens-Above · Gunter

§ Orbital elements

Epoch: 2026-09-20T10:39:40.321152Z

Period
94.27 min
Inclination
43.0030°
Eccentricity
0.0000970
Mean motion
15.27574666 rev/d
Perigee alt
482.4 km
Apogee alt
483.7 km
Semi-major
6,861.2 km
B*
4.9604e-6
RAAN
166.8402°
Arg perigee
266.0827°
Mean anomaly
93.9914°
Rev number
18,666

§ Raw data

STARLINK-63051 56394U 23061W   26263.44421668 -.00000125  00000+0  49604-5 0  99992 56394  43.0030 166.8402 0000970 266.0827  93.9914 15.27574666186664

JSON: /api/v1/satellites/56394 · /tle

For live sub-satellite position, see the globe view (requires WebGL).

§ Visibility from observer

Set your observer location to see the next 7 days of passes ≥ 10°. The values pass through the URL so the page stays shareable.

No JS? Fill the form by hand. The geolocation button needs JavaScript.